COSMOS 1275 DEB, 39967

Orbit data source: Space-Track

COSMOS 1275 DEB, 39967 is space debris in LEO originally from a launch on Thu, 04 Jun 1981 UTC launched from the Plesetsk Missile And Space Complex (PKMTR). Debris objects in space refer to the collection of defunct objects orbiting the Earth. Examples of debris include non-operational satellites, rocket bodies, and fragments generated from explosions, collisions, or faulty payload assembly.

Loading next visibility...
Identifier
39967, 1981-053PD
Orbit
LEO
Country
Flag of CISCIS
Related business
Manufacturer
Unknown
Mission
Spacecraft
Bus & Motor
Unknown
Mass
Unknown
Launch date (UTC)
1981-06-04 (45 years ago)
Launch vehicle
Unknown
Launch site
Plesetsk Missile And Space Complex (PKMTR)
Object type
Payload
Rocket body
Debris
Shape & HBR
Unknown shape, 0.1 m
Radar Cross Section
Small (<0.1 m²)

Expand to show TLE details & history
Last TLE update: 3 days ago

TLE from 3 days ago
0 COSMOS 1275 DEB
1 39967U 81053PD  26142.18190237  .00001001  00000-0  69523-3 0  9997
2 39967  82.9245  46.5999 0029294 246.6339 113.1747 13.97781139607812
Epoch: 2026-05-22T04:21Z
TLE epoch observation values (Epoch: 2026-05-22T04:21:56.364Z)
Latitude
-0.00011°
Longitude
101.29861°
Altitude
912.866 km
Speed
7.391 km/s
True Right ascension
03h 06m 23s
True Declination
0° 00' 00"
Sunlit
Object was in daylight at epoch
Visualization orbit readout
Latitude
Unknown
Longitude
Unknown
Altitude
Unknown
Speed
Unknown
Apparent Right ascension
Unknown
Apparent Declination
Unknown
Sunlit
N/A
Visualization observer readout
Local Sidereal Time
17:46:51
Azimuth
Unknown
Elevation
Unknown
Doppler factor
Unknown
Orbital elements
Apogee altitude
919.923 km
Perigee altitude
877.29 km
Semi-major axis
7,276.744 km
Eccentricity
0.00293
Inclination
82.9245°
RAAN
46.5999°
Arg. of periapsis
246.6339°
True anomaly
113.48285°
Mean anomaly
113.1747°
Eccentric anomaly
113.32882°
Mean motion
3.49653 °/min
Orbital period
102.96 mins
BSTAR
0.00069523
Loading maneuver chart data...
Computing Atmospheric mass density...
Loading historical data...
Loading historical data...
Loading historical data...
Loading historical data...
Loading historical data...
Loading historical data...
Loading historical data...

Documentation

Showing up to 5 results
|